This is the latest recevied weather packets stored in our database for station/object HB9FHL-13. If no packets are shown the sender has not sent any weather packets the latest 10 day(s).
| Time | Temp. | Humidity | Pressure | Rain* | Wind** | Luminosity | Snow |
|---|---|---|---|---|---|---|---|
| 1788210190 | 19.44° C | - | 1023.2 hPa | 3.3 mm | - | - | - |
| 1788209928 | 19.44° C | - | 1023.5 hPa | 3.3 mm | - | - | - |
| 1788209890 | 19.44° C | - | 1023.5 hPa | 3.3 mm | - | - | - |
| 1788209661 | 18.89° C | - | 1024.7 hPa | 3.3 mm | - | - | - |
| 1788209589 | 18.89° C | - | 1024.7 hPa | 3.3 mm | - | - | - |
| 1788209291 | 19.44° C | - | 1023.7 hPa | 3.3 mm | - | - | - |
| 1788208988 | 18.89° C | - | 1023.3 hPa | 3.3 mm | - | - | - |
| 1788208780 | 18.33° C | - | 1025.9 hPa | 3.3 mm | - | - | - |
| 1788208688 | 18.33° C | - | 1025.9 hPa | 3.3 mm | - | - | - |
| 1788208429 | 20° C | - | 1024.3 hPa | 3.3 mm | - | - | - |
| 1788208387 | 20° C | - | 1024.3 hPa | 3.3 mm | - | - | - |
| 1788208091 | 18.89° C | - | 1021.1 hPa | 3.3 mm | - | - | - |
| 1788207786 | 20° C | - | 1021.4 hPa | 3.3 mm | - | - | - |
| 1788207486 | 19.44° C | - | 1023.1 hPa | 3.3 mm | - | - | - |
| 1788207231 | 20° C | - | 1023.4 hPa | 3.3 mm | - | - | - |
| 1788207182 | 20° C | - | 1023.4 hPa | 3.3 mm | - | - | - |
| 1788206923 | 19.44° C | - | 1025.7 hPa | 3.3 mm | - | - | - |
| 1788206882 | 19.44° C | - | 1025.7 hPa | 3.3 mm | - | - | - |
| 1788206581 | 20° C | - | 1020.7 hPa | 3.3 mm | - | - | - |
| 1788206281 | 18.89° C | - | 1026.3 hPa | 3.3 mm | - | - | - |
| 1788206060 | 19.44° C | - | 1020.3 hPa | 3.3 mm | - | - | - |
| 1788205981 | 19.44° C | - | 1020.3 hPa | 3.3 mm | - | - | - |
| 1788205379 | 19.44° C | - | 1022.3 hPa | 3.3 mm | - | - | - |
| 1788205079 | 19.44° C | - | 1021.5 hPa | 3.3 mm | - | - | - |
| 1788204810 | 19.44° C | - | 1021.6 hPa | 3.3 mm | - | - | - |
* Rain since midnight (hover to see other rain measurements)
** Current wind speed in m/s (hover to see current wind gust speed)